This is the latest recevied weather packets stored in our database for station/object N9CQL. If no packets are shown the sender has not sent any weather packets the latest 10 day(s).
| Time | Temp. | Humidity | Pressure | Rain* | Wind** | Luminosity | Snow |
|---|---|---|---|---|---|---|---|
| 1777998989 | 13.89° C | 45% | 1007.8 hPa | 0 mm | - | 787 W/m² | - |
| 1777998686 | 13.33° C | 47% | 1007.9 hPa | 0 mm | - | 467 W/m² | - |
| 1777998383 | 13.33° C | 46% | 1007.7 hPa | 0 mm | - | 524 W/m² | - |
| 1777998081 | 13.33° C | 52% | 1007.9 hPa | 0 mm | - | 322 W/m² | - |
| 1777997778 | 13.89° C | 47% | 1007.6 hPa | 0 mm | - | 668 W/m² | - |
| 1777997475 | 12.78° C | 57% | 1007.8 hPa | 0 mm | - | 747 W/m² | - |
| 1777997173 | 12.22° C | 57% | 1007.9 hPa | 0 mm | - | 668 W/m² | - |
| 1777996870 | 12.22° C | 54% | 1007.6 hPa | 0 mm | - | 624 W/m² | - |
| 1777996566 | 11.67° C | 54% | 1007.9 hPa | 0 mm | - | 606 W/m² | - |
| 1777996263 | 11.67° C | 55% | 1007.8 hPa | 0 mm | - | 236 W/m² | - |
| 1777995959 | 12.22° C | 54% | 1007.7 hPa | 0 mm | - | 196 W/m² | - |
| 1777995655 | 11.67° C | 53% | 1007.7 hPa | 0 mm | - | 196 W/m² | - |
| 1777995352 | 12.22° C | 62% | 1007.5 hPa | 0 mm | - | 140 W/m² | - |
| 1777995050 | 11.67° C | 61% | 1007.3 hPa | 0 mm | - | 138 W/m² | - |
| 1777994746 | 11.11° C | 58% | 1007.4 hPa | 0 mm | - | 170 W/m² | - |
| 1777994442 | 11.67° C | 57% | 1007.6 hPa | 0 mm | - | 225 W/m² | - |
| 1777994137 | 11.11° C | 58% | 1007.8 hPa | 0 mm | - | 230 W/m² | - |
| 1777993835 | 11.67° C | 65% | 1007.5 hPa | 0 mm | - | 287 W/m² | - |
| 1777993531 | 11.11° C | 66% | 1007.6 hPa | 0 mm | - | 219 W/m² | - |
| 1777993227 | 11.11° C | 64% | 1007.6 hPa | 0 mm | - | 191 W/m² | - |
| 1777992924 | 10.56° C | 69% | 1007.4 hPa | 0 mm | - | 213 W/m² | - |
| 1777992622 | 10.56° C | 71% | 1007.5 hPa | 0 mm | - | 194 W/m² | - |
| 1777992320 | 10° C | 76% | 1007.7 hPa | 0 mm | - | 232 W/m² | - |
| 1777992016 | 10° C | 84% | 1007.2 hPa | 0 mm | - | 186 W/m² | - |
| 1777991714 | 9.44° C | 87% | 1007.1 hPa | 0 mm | - | 240 W/m² | - |
* Rain latest hour (hover to see other rain measurements)
** Current wind speed in m/s (hover to see current wind gust speed)